Regional Weather Roundup
Issued by NWS

Home | Current Version | Previous Version | Text Only | Print | Product List | Glossary On
Versions: 1 2 3 4 5 6 7 8 9 10 11 12 13 14 15 16 17 18 19 20 21 22 23 24 25 26 27 28 29 30 31 32 33 34 35 36 37 38 39 40 41 42 43 44 45 46 47 48 49 50
000
ASUS43 KMPX 261210
RWRMN
WEATHER ROUNDUP FOR MINNESOTA
NATIONAL WEATHER SERVICE TWIN CITIES/CHANHASSEN MN
600 AM CST WED NOV 26 2014


NOTE: "FAIR" INDICATES FEW OR NO CLOUDS BELOW 12,000 FEET WITH NO
SIGNIFICANT WEATHER AND/OR OBSTRUCTIONS TO VISIBILITY. N/A MEANS
CURRENT SKY AND/OR WEATHER CONDITIONS ARE NOT AVAILABLE.

MNZ060>063-068>070-261300-
   Twin Cities Metro

CITY           SKY/WX    TMP DP  RH WIND       PRES   REMARKS
TWIN CITIES    FLURRIES  24  16  71 E9        30.06R WCI  14
6HR MIN TEMP:  23; 6HR MAX TEMP:  24; 6HR PCP: TRACE;

ST PAUL        CLOUDY    24  15  68 E6        30.08R WCI  17
CRYSTAL        CLOUDY    25  15  66 E5        30.05R WCI  19
LAKEVILLE      LGT SNOW  21  19  93 E9        30.04R WCI  11
EDEN PRAIRIE   LGT SNOW  23  19  85 E9        30.04R FOG     WCI  13
6HR MIN TEMP:  23; 6HR MAX TEMP:  25; 6HR PCP: TRACE;

SOUTH ST PAUL  CLOUDY    25  17  70 E5        30.06S WCI  19
LAKE ELMO      CLOUDY    25  18  74 E6        30.07R WCI  18
$$
MNZ001>005-007-008-013>017-022>024-027-028-261300-
   Northwest Minnesota

CITY           SKY/WX    TMP DP  RH WIND       PRES   REMARKS
BEMIDJI        CLOUDY    12   8  82 N8        30.16R WCI   0
HALLOCK        CLOUDY    -4  -9  77 N10       30.35R WCI -21
ROSEAU         CLEAR     -4  -9  77 NW7       30.29R WCI -18
WARROAD        CLEAR     -4  -8  84 NW8       30.27R WCI -19
THIEF RVR FALL PTCLDY     1  -2  85 N14       30.26R WCI -17
CROOKSTON      CLEAR      0  -4  85 N15       30.31R WCI -20
FOSSTON        LGT SNOW   7   3  85 N16       30.21R WCI -11
DETROIT LAKES  FLURRIES  14  12  92 N9        30.16R WCI   2
MOORHEAD       CLOUDY     9   9 100 N20       30.24R FOG     WCI -11
PARK RAPIDS    CLOUDY    17  12  80 N13       30.12R WCI   4
MAHNOMEN       CLOUDY    10   6  85 N15G21    30.19R WCI  -7
$$
MNZ006-009>011-018-025>026-261300-
   North Central Minnesota

CITY           SKY/WX    TMP DP  RH WIND       PRES   REMARKS
BAUDETTE       CLEAR      2  -2  83 N10       30.22R WCI -14
FLAG ISLAND    CLEAR     -4  -8  84 N12       30.26R WCI -22
INTL FALLS     CLOUDY    10   4  76 N10       30.17R WCI  -4
6HR MIN TEMP:   9; 6HR MAX TEMP:  15; 6HR PCP:  0.03;

WASKISH        MOCLDY     9   5  85 CALM      30.20R
BIG FORK       FLURRIES  14  10  85 N3        30.14R
LONGVILLE      LGT SNOW  18  14  86 CALM      30.12R
GRAND RAPIDS   CLOUDY    16  10  79 N7        30.10R WCI   6
CRANE LAKE     LGT SNOW  12  10  92 NW3       30.15S
ORR            FLURRIES  12   9  85 CALM      30.10R
COOK           LGT SNOW  12  10  92 CALM      30.11S
WALKER         CLOUDY    15  11  83 N6        30.13R WCI   6
$$
MNZ012-019>021-037-261300-
   Northeast Minnesota

CITY           SKY/WX    TMP DP  RH WIND       PRES   REMARKS
DULUTH         LGT SNOW  18  13  80 N6        30.08R WCI  10
6HR MIN TEMP:  18; 6HR MAX TEMP:  20; 6HR PCP: TRACE;

ELY            FLURRIES  12  10  92 CALM      30.09R
HIBBING        FLURRIES  18  11  74 N6        30.10R WCI  10
EVELETH        FLURRIES  18  12  79 CALM      30.11R
DULUTH HARBOR  FLURRIES  21  18  86 CALM      30.14R
TWO HARBORS    LGT SNOW  21  16  79 CALM      30.08S
SILVER BAY     LGT SNOW  19  14  79 CALM      30.09R
GRAND MARAIS     N/A     20   9  62 N6        30.12S WCI  12
G MARAIS ARPRT LGT SNOW  10   7  85 NW5       30.04S WCI   2
$$
MNZ029>031-032-039>041-046>048-054>057-064-261300-
   West Central Minnesota

CITY           SKY/WX    TMP DP  RH WIND       PRES   REMARKS
FERGUS FALLS   MOCLDY    16  10  79 N10       30.18R WCI   3
WHEATON        CLOUDY    12  10  92 NW22G28   30.18R WCI  -7
MORRIS         LGT SNOW  19  18  93 N15       30.10R WCI   5
ALEXANDRIA     LGT SNOW  19  15  84 NE14      30.09R FOG     WCI   6
ELBOW LAKE     FLURRIES  19  16  88 N12       30.13R WCI   6
WADENA         LGT SNOW N/A N/A N/A N7          N/A
GLENWOOD       LGT SNOW  19  18  93 N12       30.08R WCI   7
APPLETON       LGT SNOW  21  19  93 N16       30.10R WCI   7
BENSON         LGT SNOW  21  19  93 NE9       30.09R WCI  11
ORTONVILLE     LGT SNOW  19  18  93 N17       30.11R WCI   4
MADISON        LGT SNOW  25  21  86 N18       30.09R WCI  11
WILLMAR        CLOUDY    25  19  80 NE10      30.06R WCI  15
$$
MNZ033>034-036-042>043-049>051-058-059-261300-
   Central Minnesota

CITY           SKY/WX    TMP DP  RH WIND       PRES   REMARKS
ST CLOUD       CLOUDY    23  16  74 N7        30.08R WCI  15
6HR MIN TEMP:  23; 6HR MAX TEMP:  24;

SAUK CENTRE    LGT SNOW  19  17  89 N7        30.08R WCI  10
PAYNESVILLE    CLOUDY    19  17  93 N9        30.06R WCI   8
AITKIN         LGT SNOW  19  14  79 N6        30.10R WCI  11
PINE RIVER     LGT SNOW  18  16  93 N5        30.14S WCI  11
BRAINERD       LGT SNOW  17  14  88 N8        30.11R FOG     WCI   7
STAPLES        LGT SNOW  18  16  93 N6        30.11R WCI   9
LONG PRAIRIE   LGT SNOW  19  16  86 N10       30.09R WCI   8
LITTLE FALLS   FLURRIES  21  18  86 N3        30.10R
LITCHFIELD     CLOUDY    25  21  86 NE9       30.05R WCI  15
BUFFALO        CLOUDY    24  18  80 N6        30.06R WCI  16
MAPLE LAKE     CLOUDY    24  20  82 N6        30.07R WCI  17
$$
MNZ037-044-045-052-053-261300-
   East Central Minnesota

CITY           SKY/WX    TMP DP  RH WIND       PRES   REMARKS
PRINCETON      CLOUDY    23  18  80 CALM      30.08R
MORA           MOCLDY    21  16  79 CALM      30.10S
CAMBRIDGE      CLOUDY    25  16  68 CALM      30.07R
RUSH CITY      CLOUDY    22  18  84 N5        30.09R WCI  15
MOOSE LAKE     CLOUDY    19  14  79 N3        30.09R
HINCKLEY       CLOUDY    21  19  93 CALM      30.09R
CLOQUET        CLOUDY    18  12  79 CALM      30.09R
MCGREGOR       CLOUDY    19  16  86 NW7       30.11R WCI  10
$$
MNZ071>073-080-081-089-090-097-098-261300-
   Southwest Minnesota

CITY           SKY/WX    TMP DP  RH WIND       PRES   REMARKS
MONTEVIDEO     LGT SNOW  21  21 100 NE14      30.08R WCI   8
GRANITE FALLS  LGT SNOW  23  21  93 N12       30.06R WCI  12
CANBY          FLURRIES  22  21  95 N14G21    30.08R WCI  10
MARSHALL       CLOUDY    23  19  86 N14       30.02R WCI  11
REDWOOD FALLS  LGT SNOW  24  22  91 NE7       30.03R FOG     WCI  16
OLIVIA         LGT SNOW  25  21  86 NE9       30.03R WCI  15
PIPESTONE      CLOUDY    25  23  93 NE15G23   29.95R WCI  12
WINDOM         MIX PCPN  25  25 100 N10       29.94R WCI  15
WORTHINGTON    CLOUDY    25  23  93 N13       29.92R WCI  13
JACKSON        CLOUDY    28  27  93 NE8       29.92R WCI  20
TRACY          LGT SNOW  24  23  95 N14       29.99R WCI  12
SLAYTON        CLOUDY    24  23  99 N13G20    29.95R FOG     WCI  12
$$
MNZ065>067-074>077-082>085-091>093-261300-
   South Central Minnesota

CITY           SKY/WX    TMP DP  RH WIND       PRES   REMARKS
MANKATO        CLOUDY    27  21  80 E9        29.98R VSB 3/4 WCI  17
NEW ULM        SNOW      25  25 100 NE8       30.00R VSB 1/4 WCI  16
ST JAMES       LGT SNOW  27  25  93 N8        29.98R WCI  18
FAIRMONT       CLOUDY    25  21  86 E6        29.93R VSB 1   WCI  18
GLENCOE        LGT SNOW  24  23  94 NE3       30.03R
FARIBAULT      LGT SNOW  25  21  86 NE7       30.01R WCI  17
OWATONNA       LGT SNOW  25  21  86 E9        29.98R WCI  15
WASECA         LGT SNOW  25  21  86 E9        29.98S WCI  15
ALBERT LEA     CLOUDY    25  23  93 SE9       29.95S WCI  15
$$
MNZ078>079-086>088-094>096-261300-
   Southeast Minnesota

CITY           SKY/WX    TMP DP  RH WIND       PRES   REMARKS
ROCHESTER      CLOUDY    20  16  84 SE10      30.01R WCI   9
6HR MIN TEMP:  19; 6HR MAX TEMP:  21;

RED WING       CLOUDY    23  16  74 E5        30.06R WCI  17
STANTON        LGT SNOW  24  20  85 NE7       30.03R WCI  16
DODGE CENTER   LGT SNOW  23  19  86 E10       29.99R WCI  12
WINONA         CLOUDY    23  18  80 SE8       30.09S WCI  14
AUSTIN         MIX PCPN  25  21  86 SE12      29.97S WCI  14
PRESTON        CLOUDY    19  16  89 SE5       30.02R WCI  12
$$
ABBREVIATIONS USED IN REMARKS
   TC - TEMPERATURES IN CELSIUS
  WCI - WIND CHILL INDEX
   HX - HEAT INDEX
  VSB - VISIBILITY
$$


USA.gov is the U.S. government's official web portal to all federal, state and local government web resources and services.